Weather History for HEGN - February, 2014

Change the Weather History Date:

Monday, February 3, 2014

  Actual Average Record
Temperature  
Mean Temperature 70 °F -  
Max Temperature 81 °F 70 °F 83 °F (2015)
Min Temperature 59 °F 53 °F 48 °F (2013)
Cooling Degree Days 5    
Growing Degree Days 20 (Base 50)    
Moisture  
Dew Point 46 °F    
Average Humidity 45    
Maximum Humidity 68    
Minimum Humidity 18    
Precipitation  
Precipitation 0.00 in - - ()
Sea Level Pressure  
Sea Level Pressure 29.84 in    
Wind  
Wind Speed 18 mph ()    
Max Wind Speed 29 mph    
Max Gust Speed -    
Visibility 3.8 miles    
Events      
Averages and records for this station are not official NWS values.
T = Trace of Precipitation, MM = Missing Value Source: Averaged Metar Reports

Daily Weather History Graph

Daily Weather History Graph

Search for Another Location

Airport or City:

Trip Planner

Search our weather history database for the weather conditions in past years. The results will help you decide how hot, cold, wet, or windy it might be!

Date:

Astronomy

Feb. 03, 2014 Rise Set
Actual Time 6:29 AM EET 5:27 PM EET
Civil Twilight 6:05 AM EET 5:52 PM EET
Nautical Twilight 5:37 AM EET 6:19 PM EET
Astronomical Twilight 5:10 AM EET 6:47 PM EET
Moon 8:45 AM EET (2/3) 9:26 PM EET (2/3)
Length of Visible Light 11h 46m
Length of Day
10h 58m
Waxing Crescent, 17% of the Moon is Illuminated
Feb 3
Waxing Crescent
Feb 6
First Quarter
Feb 15
Full
Feb 22
Last Quarter
Mar 1
New

Hourly Weather History & Observations

Time (EET) Temp. Dew Point Humidity Pressure Visibility Wind Dir Wind Speed Gust Speed Precip Events Conditions
12:00 AM 69.8 °F 30.2 °F 23% 29.71 in - WNW 8.1 mph - N/A   Clear
1:00 AM 68.0 °F 33.8 °F 28% 29.71 in - WNW 23.0 mph - N/A   Clear
2:00 AM 67 °F 41 °F 27% 29.75 in 2 mi NW 28.8 mph - -   Blowing Sand
2:00 AM 66.2 °F 41.0 °F 40% 29.74 in 2.5 mi NW 28.8 mph - N/A   Sand
3:00 AM 59.0 °F 42.8 °F 55% 29.74 in 2.5 mi NW 26.5 mph - N/A   Sand
4:00 AM 64.4 °F 46.4 °F 52% 29.77 in 2.5 mi NNW 23.0 mph - N/A   Sand
5:00 AM 64 °F 45 °F 39% 29.78 in 2 mi NW 23.0 mph - -  
5:00 AM 64.4 °F 46.4 °F 52% 29.77 in 2.5 mi NW 23.0 mph - N/A   Sand
6:00 AM 60.8 °F 46.4 °F 59% 29.80 in 2.5 mi North 19.6 mph - N/A   Sand
7:00 AM 60.8 °F 46.4 °F 59% 29.83 in 3.7 mi North 16.1 mph - N/A   Unknown
8:00 AM 64 °F 45 °F 39% 29.78 in 4 mi NW 23.0 mph - -   Blowing Sand
8:00 AM 60.8 °F 44.6 °F 55% 29.83 in 3.7 mi North 16.1 mph - N/A   Unknown
9:00 AM 66.2 °F 44.6 °F 46% 29.86 in 5.0 mi NNW 17.3 mph - N/A   Unknown
10:00 AM 69.8 °F 44.6 °F 40% 29.89 in 3.7 mi WNW 26.5 mph - N/A   Unknown
11:00 AM 72 °F 44 °F 25% 29.88 in 4 mi NW 25.3 mph - -   Blowing Sand
11:00 AM 71.6 °F 44.6 °F 38% 29.86 in 3.7 mi NW 25.3 mph - N/A   Unknown
12:00 PM 73.4 °F 42.8 °F 33% 29.86 in 3.7 mi WNW 23.0 mph - N/A   Unknown
1:00 PM 75.2 °F 41.0 °F 29% 29.83 in 3.7 mi WNW 23.0 mph - N/A   Unknown
2:00 PM 77 °F 41 °F 18% 29.84 in 6 mi North 20.7 mph - -  
2:00 PM 77.0 °F 41.0 °F 28% 29.83 in - North 20.7 mph - N/A   Clear
3:00 PM 77.0 °F 48.2 °F 36% 29.83 in - North 18.4 mph - N/A   Clear
4:00 PM 75.2 °F 53.6 °F 47% 29.86 in - North 19.6 mph - N/A   Clear
5:00 PM 71 °F 55 °F 47% 29.88 in 6 mi North 20.7 mph - -  
5:00 PM 71.6 °F 55.4 °F 57% 29.86 in - North 20.7 mph - N/A   Clear
6:00 PM 68.0 °F 53.6 °F 60% 29.89 in - NW 23.0 mph - N/A   Clear
7:00 PM 68.0 °F 53.6 °F 60% 29.92 in - North 15.0 mph - N/A   Clear
8:00 PM 66 °F 53 °F 54% 29.95 in 6 mi North 15.0 mph - -  
8:00 PM 66.2 °F 53.6 °F 64% 29.95 in - North 15.0 mph - N/A   Clear
10:00 PM 64.4 °F 51.8 °F 64% 29.95 in - North 16.1 mph - N/A   Clear
11:00 PM 61 °F 50 °F 58% 29.99 in 6 mi NW 4.6 mph - -  
11:00 PM 60.8 °F 50.0 °F 68% 29.98 in - NW 4.6 mph - N/A   Clear